Location: Beuvrequen
(50.8014°N, 1.6652°E)
Time: 03:53:34
(UTC+00:00)

Cosmos 2344 - Pass Details

Date: 16 October 2021
Orbit: 1233 x 3009 km, 63.3° (Epoch: 05 December)

Event Time Altitude Azimuth Distance (km) Brightness Sun altitude
Rises 17:45:58 0° 305° (NW) 4,280 7.2 -8.2°
Reaches altitude 10° 17:48:42 10° 312° (NW) 3,403 6.5 -8.6°
Maximum altitude 17:56:36 47° 26° (NNE) 2,013 4.4 -9.9°
Enters shadow 18:06:02 13° 96° (E) 4,154 5.6 -11.4°
